owner,sensor,date,latitude,longitude,relative_humidity,qcFlag 
COMPS,ioos:station:USF.COMPS:ARP:1,2019-08-01T00:54:00,28.4330,-82.6670,88.68,11111222 
COMPS,ioos:station:USF.COMPS:ARP:1,2019-08-01T01:54:00,28.4330,-82.6670,92.73,11111222 
COMPS,ioos:station:USF.COMPS:ARP:1,2019-08-01T02:54:00,28.4330,-82.6670,82.64,11111222 
COMPS,ioos:station:USF.COMPS:ARP:1,2019-08-01T03:54:00,28.4330,-82.6670,89.72,11111222 
COMPS,ioos:station:USF.COMPS:ARP:1,2019-08-01T04:54:00,28.4330,-82.6670,80.34,11111222 
COMPS,ioos:station:USF.COMPS:ARP:1,2019-08-01T05:54:00,28.4330,-82.6670,82.85,11111222 
COMPS,ioos:station:USF.COMPS:ARP:1,2019-08-01T06:54:00,28.4330,-82.6670,81.32,11111222 
COMPS,ioos:station:USF.COMPS:ARP:1,2019-08-01T07:54:00,28.4330,-82.6670,84.04,11111222 
COMPS,ioos:station:USF.COMPS:ARP:1,2019-08-01T08:54:00,28.4330,-82.6670,86.64,11111222 
COMPS,ioos:station:USF.COMPS:ARP:1,2019-08-01T09:54:00,28.4330,-82.6670,86.04,11111222 
COMPS,ioos:station:USF.COMPS:ARP:1,2019-08-01T10:54:00,28.4330,-82.6670,85.77,11111222 
COMPS,ioos:station:USF.COMPS:ARP:1,2019-08-01T11:54:00,28.4330,-82.6670,82.34,11111222 
COMPS,ioos:station:USF.COMPS:ARP:1,2019-08-01T12:54:00,28.4330,-82.6670,74.16,11111222 
COMPS,ioos:station:USF.COMPS:ARP:1,2019-08-01T13:54:00,28.4330,-82.6670,66.57,11111222 
COMPS,ioos:station:USF.COMPS:ARP:1,2019-08-01T14:54:00,28.4330,-82.6670,64.84,11111222 
COMPS,ioos:station:USF.COMPS:ARP:1,2019-08-01T15:54:00,28.4330,-82.6670,68.35,11111222 
COMPS,ioos:station:USF.COMPS:ARP:1,2019-08-01T16:54:00,28.4330,-82.6670,68.61,11111222 
COMPS,ioos:station:USF.COMPS:ARP:1,2019-08-01T17:54:00,28.4330,-82.6670,64.44,11111222 
COMPS,ioos:station:USF.COMPS:ARP:1,2019-08-01T18:54:00,28.4330,-82.6670,66.44,11111222 
COMPS,ioos:station:USF.COMPS:ARP:1,2019-08-01T19:54:00,28.4330,-82.6670,60.89,11111222 
COMPS,ioos:station:USF.COMPS:ARP:1,2019-08-01T20:54:00,28.4330,-82.6670,94.55,11111222 
COMPS,ioos:station:USF.COMPS:ARP:1,2019-08-01T21:54:00,28.4330,-82.6670,94.99,11111222 
COMPS,ioos:station:USF.COMPS:ARP:1,2019-08-01T22:54:00,28.4330,-82.6670,91.99,11111222 
COMPS,ioos:station:USF.COMPS:ARP:1,2019-08-01T23:54:00,28.4330,-82.6670,93.0,11111222 
COMPS,ioos:station:USF.COMPS:ARP:1,2019-08-02T00:54:00,28.4330,-82.6670,94.32,11111222 
COMPS,ioos:station:USF.COMPS:ARP:1,2019-08-02T01:54:00,28.4330,-82.6670,94.89,11111222 
COMPS,ioos:station:USF.COMPS:ARP:1,2019-08-02T02:54:00,28.4330,-82.6670,93.71,11111222 
COMPS,ioos:station:USF.COMPS:ARP:1,2019-08-02T03:54:00,28.4330,-82.6670,93.92,11111222 
COMPS,ioos:station:USF.COMPS:ARP:1,2019-08-02T04:54:00,28.4330,-82.6670,92.74,11111222 
COMPS,ioos:station:USF.COMPS:ARP:1,2019-08-02T05:54:00,28.4330,-82.6670,91.4,11111222 
COMPS,ioos:station:USF.COMPS:ARP:1,2019-08-02T06:54:00,28.4330,-82.6670,92.72,11111222 
COMPS,ioos:station:USF.COMPS:ARP:1,2019-08-02T07:54:00,28.4330,-82.6670,94.56,11111222 
COMPS,ioos:station:USF.COMPS:ARP:1,2019-08-02T08:54:00,28.4330,-82.6670,94.6,11111222 
COMPS,ioos:station:USF.COMPS:ARP:1,2019-08-02T09:54:00,28.4330,-82.6670,93.37,11111222 
COMPS,ioos:station:USF.COMPS:ARP:1,2019-08-02T10:54:00,28.4330,-82.6670,93.07,11111222 
COMPS,ioos:station:USF.COMPS:ARP:1,2019-08-02T11:54:00,28.4330,-82.6670,93.37,11111222 
COMPS,ioos:station:USF.COMPS:ARP:1,2019-08-02T12:54:00,28.4330,-82.6670,93.1,11111222 
COMPS,ioos:station:USF.COMPS:ARP:1,2019-08-02T13:54:00,28.4330,-82.6670,84.87,11111222 
COMPS,ioos:station:USF.COMPS:ARP:1,2019-08-02T14:54:00,28.4330,-82.6670,82.82,11111222 
COMPS,ioos:station:USF.COMPS:ARP:1,2019-08-02T15:54:00,28.4330,-82.6670,73.79,11111222 
COMPS,ioos:station:USF.COMPS:ARP:1,2019-08-02T16:54:00,28.4330,-82.6670,74.41,11111222 
COMPS,ioos:station:USF.COMPS:ARP:1,2019-08-02T17:54:00,28.4330,-82.6670,62.91,11111222 
COMPS,ioos:station:USF.COMPS:ARP:1,2019-08-02T18:54:00,28.4330,-82.6670,65.14,11111222 
COMPS,ioos:station:USF.COMPS:ARP:1,2019-08-02T19:54:00,28.4330,-82.6670,63.46,11111222 
COMPS,ioos:station:USF.COMPS:ARP:1,2019-08-02T20:54:00,28.4330,-82.6670,63.17,11111222 
COMPS,ioos:station:USF.COMPS:ARP:1,2019-08-02T21:54:00,28.4330,-82.6670,97.05,11111222 
COMPS,ioos:station:USF.COMPS:ARP:1,2019-08-02T22:54:00,28.4330,-82.6670,93.82,11111222 
COMPS,ioos:station:USF.COMPS:ARP:1,2019-08-03T00:54:00,28.4330,-82.6670,94.38,11111222 
COMPS,ioos:station:USF.COMPS:ARP:1,2019-08-03T01:54:00,28.4330,-82.6670,94.18,11111222 
COMPS,ioos:station:USF.COMPS:ARP:1,2019-08-03T02:54:00,28.4330,-82.6670,93.1,11111222 
COMPS,ioos:station:USF.COMPS:ARP:1,2019-08-03T03:54:00,28.4330,-82.6670,93.52,11111222 
COMPS,ioos:station:USF.COMPS:ARP:1,2019-08-03T04:54:00,28.4330,-82.6670,93.02,11111222 
COMPS,ioos:station:USF.COMPS:ARP:1,2019-08-03T05:54:00,28.4330,-82.6670,88.6,11111222 
COMPS,ioos:station:USF.COMPS:ARP:1,2019-08-03T06:54:00,28.4330,-82.6670,91.15,11111222 
COMPS,ioos:station:USF.COMPS:ARP:1,2019-08-03T07:54:00,28.4330,-82.6670,91.33,11111222 
COMPS,ioos:station:USF.COMPS:ARP:1,2019-08-03T08:54:00,28.4330,-82.6670,90.7,11111222 
COMPS,ioos:station:USF.COMPS:ARP:1,2019-08-03T09:54:00,28.4330,-82.6670,90.11,11111222 
COMPS,ioos:station:USF.COMPS:ARP:1,2019-08-03T10:54:00,28.4330,-82.6670,91.9,11111222 
COMPS,ioos:station:USF.COMPS:ARP:1,2019-08-03T11:54:00,28.4330,-82.6670,91.94,11111222 
COMPS,ioos:station:USF.COMPS:ARP:1,2019-08-03T12:54:00,28.4330,-82.6670,89.34,11111222 
COMPS,ioos:station:USF.COMPS:ARP:1,2019-08-03T13:54:00,28.4330,-82.6670,76.71,11111222 
COMPS,ioos:station:USF.COMPS:ARP:1,2019-08-03T14:54:00,28.4330,-82.6670,66.44,11111222 
COMPS,ioos:station:USF.COMPS:ARP:1,2019-08-03T15:54:00,28.4330,-82.6670,79.96,11111222 
COMPS,ioos:station:USF.COMPS:ARP:1,2019-08-03T16:54:00,28.4330,-82.6670,79.96,11111222 
COMPS,ioos:station:USF.COMPS:ARP:1,2019-08-03T17:54:00,28.4330,-82.6670,81.53,11111222 
COMPS,ioos:station:USF.COMPS:ARP:1,2019-08-03T18:54:00,28.4330,-82.6670,74.91,11111222 
COMPS,ioos:station:USF.COMPS:ARP:1,2019-08-03T19:54:00,28.4330,-82.6670,76.89,11111222 
COMPS,ioos:station:USF.COMPS:ARP:1,2019-08-03T20:54:00,28.4330,-82.6670,71.9,11111222 
COMPS,ioos:station:USF.COMPS:ARP:1,2019-08-03T21:54:00,28.4330,-82.6670,68.86,11111222 
COMPS,ioos:station:USF.COMPS:ARP:1,2019-08-03T22:54:00,28.4330,-82.6670,69.66,11111222 
COMPS,ioos:station:USF.COMPS:ARP:1,2019-08-03T23:54:00,28.4330,-82.6670,71.56,11111222 
COMPS,ioos:station:USF.COMPS:ARP:1,2019-08-04T00:54:00,28.4330,-82.6670,75.91,11111222 
COMPS,ioos:station:USF.COMPS:ARP:1,2019-08-04T01:54:00,28.4330,-82.6670,75.79,11111222 
COMPS,ioos:station:USF.COMPS:ARP:1,2019-08-04T02:54:00,28.4330,-82.6670,84.25,11111222 
COMPS,ioos:station:USF.COMPS:ARP:1,2019-08-04T03:54:00,28.4330,-82.6670,83.51,11111222 
COMPS,ioos:station:USF.COMPS:ARP:1,2019-08-04T04:54:00,28.4330,-82.6670,87.04,11111222 
COMPS,ioos:station:USF.COMPS:ARP:1,2019-08-04T05:54:00,28.4330,-82.6670,88.48,11111222 
COMPS,ioos:station:USF.COMPS:ARP:1,2019-08-04T06:54:00,28.4330,-82.6670,86.28,11111222 
COMPS,ioos:station:USF.COMPS:ARP:1,2019-08-04T07:54:00,28.4330,-82.6670,85.28,11111222 
COMPS,ioos:station:USF.COMPS:ARP:1,2019-08-04T08:54:00,28.4330,-82.6670,86.76,11111222 
COMPS,ioos:station:USF.COMPS:ARP:1,2019-08-04T09:54:00,28.4330,-82.6670,86.92,11111222 
COMPS,ioos:station:USF.COMPS:ARP:1,2019-08-04T10:54:00,28.4330,-82.6670,89.42,11111222 
COMPS,ioos:station:USF.COMPS:ARP:1,2019-08-04T11:54:00,28.4330,-82.6670,79.53,11111222 
COMPS,ioos:station:USF.COMPS:ARP:1,2019-08-04T12:54:00,28.4330,-82.6670,62.28,11111222 
COMPS,ioos:station:USF.COMPS:ARP:1,2019-08-04T13:54:00,28.4330,-82.6670,65.73,11111222 
COMPS,ioos:station:USF.COMPS:ARP:1,2019-08-04T14:54:00,28.4330,-82.6670,72.23,11111222 
COMPS,ioos:station:USF.COMPS:ARP:1,2019-08-04T15:54:00,28.4330,-82.6670,70.43,11111222 
COMPS,ioos:station:USF.COMPS:ARP:1,2019-08-04T16:54:00,28.4330,-82.6670,72.09,11111222 
COMPS,ioos:station:USF.COMPS:ARP:1,2019-08-04T17:54:00,28.4330,-82.6670,73.23,11111222 
COMPS,ioos:station:USF.COMPS:ARP:1,2019-08-04T18:54:00,28.4330,-82.6670,71.26,11111222 
COMPS,ioos:station:USF.COMPS:ARP:1,2019-08-04T19:54:00,28.4330,-82.6670,69.96,11111222 
COMPS,ioos:station:USF.COMPS:ARP:1,2019-08-04T20:54:00,28.4330,-82.6670,73.09,11111222 
COMPS,ioos:station:USF.COMPS:ARP:1,2019-08-04T21:54:00,28.4330,-82.6670,71.92,11111222 
COMPS,ioos:station:USF.COMPS:ARP:1,2019-08-04T22:54:00,28.4330,-82.6670,70.55,11111222 
COMPS,ioos:station:USF.COMPS:ARP:1,2019-08-04T23:54:00,28.4330,-82.6670,73.83,11111222 
COMPS,ioos:station:USF.COMPS:ARP:1,2019-08-05T00:54:00,28.4330,-82.6670,76.47,11111222 
COMPS,ioos:station:USF.COMPS:ARP:1,2019-08-05T01:54:00,28.4330,-82.6670,70.69,11111222 
COMPS,ioos:station:USF.COMPS:ARP:1,2019-08-05T02:54:00,28.4330,-82.6670,72.96,11111222 
COMPS,ioos:station:USF.COMPS:ARP:1,2019-08-05T03:54:00,28.4330,-82.6670,78.23,11111222 
COMPS,ioos:station:USF.COMPS:ARP:1,2019-08-05T04:54:00,28.4330,-82.6670,78.77,11111222 
COMPS,ioos:station:USF.COMPS:ARP:1,2019-08-05T05:54:00,28.4330,-82.6670,80.77,11111222 
COMPS,ioos:station:USF.COMPS:ARP:1,2019-08-05T06:54:00,28.4330,-82.6670,80.37,11111222 
COMPS,ioos:station:USF.COMPS:ARP:1,2019-08-05T07:54:00,28.4330,-82.6670,74.07,11111222 
COMPS,ioos:station:USF.COMPS:ARP:1,2019-08-05T08:54:00,28.4330,-82.6670,87.6,11111222 
COMPS,ioos:station:USF.COMPS:ARP:1,2019-08-05T09:54:00,28.4330,-82.6670,78.09,11111222 
COMPS,ioos:station:USF.COMPS:ARP:1,2019-08-05T10:54:00,28.4330,-82.6670,86.77,11111222 
COMPS,ioos:station:USF.COMPS:ARP:1,2019-08-05T11:54:00,28.4330,-82.6670,87.62,11111222 
COMPS,ioos:station:USF.COMPS:ARP:1,2019-08-05T12:54:00,28.4330,-82.6670,90.33,11111222 
COMPS,ioos:station:USF.COMPS:ARP:1,2019-08-05T13:54:00,28.4330,-82.6670,75.03,11111222 
COMPS,ioos:station:USF.COMPS:ARP:1,2019-08-05T14:54:00,28.4330,-82.6670,71.12,11111222 
COMPS,ioos:station:USF.COMPS:ARP:1,2019-08-05T15:54:00,28.4330,-82.6670,70.11,11111222 
COMPS,ioos:station:USF.COMPS:ARP:1,2019-08-05T16:54:00,28.4330,-82.6670,69.92,11111222 
COMPS,ioos:station:USF.COMPS:ARP:1,2019-08-05T17:54:00,28.4330,-82.6670,73.03,11111222 
COMPS,ioos:station:USF.COMPS:ARP:1,2019-08-05T18:54:00,28.4330,-82.6670,73.38,11111222 
COMPS,ioos:station:USF.COMPS:ARP:1,2019-08-05T19:54:00,28.4330,-82.6670,66.64,11111222 
COMPS,ioos:station:USF.COMPS:ARP:1,2019-08-05T20:54:00,28.4330,-82.6670,72.21,11111222 
COMPS,ioos:station:USF.COMPS:ARP:1,2019-08-05T21:54:00,28.4330,-82.6670,68.95,11111222 
COMPS,ioos:station:USF.COMPS:ARP:1,2019-08-05T22:54:00,28.4330,-82.6670,69.03,11111222 
COMPS,ioos:station:USF.COMPS:ARP:1,2019-08-05T23:54:00,28.4330,-82.6670,77.33,11111222 
COMPS,ioos:station:USF.COMPS:ARP:1,2019-08-06T00:54:00,28.4330,-82.6670,72.77,11111222 
COMPS,ioos:station:USF.COMPS:ARP:1,2019-08-06T01:54:00,28.4330,-82.6670,75.76,11111222 
COMPS,ioos:station:USF.COMPS:ARP:1,2019-08-06T02:54:00,28.4330,-82.6670,86.94,11111222 
COMPS,ioos:station:USF.COMPS:ARP:1,2019-08-06T03:54:00,28.4330,-82.6670,88.89,11111222 
COMPS,ioos:station:USF.COMPS:ARP:1,2019-08-06T04:54:00,28.4330,-82.6670,87.69,11111222 
COMPS,ioos:station:USF.COMPS:ARP:1,2019-08-06T05:54:00,28.4330,-82.6670,88.48,11111222 
COMPS,ioos:station:USF.COMPS:ARP:1,2019-08-06T06:54:00,28.4330,-82.6670,88.8,11111222 
COMPS,ioos:station:USF.COMPS:ARP:1,2019-08-06T07:54:00,28.4330,-82.6670,92.36,11111222 
COMPS,ioos:station:USF.COMPS:ARP:1,2019-08-06T08:54:00,28.4330,-82.6670,92.95,11111222 
COMPS,ioos:station:USF.COMPS:ARP:1,2019-08-06T09:54:00,28.4330,-82.6670,92.98,11111222 
COMPS,ioos:station:USF.COMPS:ARP:1,2019-08-06T10:54:00,28.4330,-82.6670,94.62,11111222 
COMPS,ioos:station:USF.COMPS:ARP:1,2019-08-06T11:54:00,28.4330,-82.6670,85.3,11111222 
COMPS,ioos:station:USF.COMPS:ARP:1,2019-08-06T12:54:00,28.4330,-82.6670,80.29,11111222 
COMPS,ioos:station:USF.COMPS:ARP:1,2019-08-06T13:54:00,28.4330,-82.6670,84.3,11111222 
COMPS,ioos:station:USF.COMPS:ARP:1,2019-08-06T14:54:00,28.4330,-82.6670,80.11,11111222 
COMPS,ioos:station:USF.COMPS:ARP:1,2019-08-06T15:54:00,28.4330,-82.6670,86.13,11111222 
COMPS,ioos:station:USF.COMPS:ARP:1,2019-08-06T16:54:00,28.4330,-82.6670,78.34,11111222 
COMPS,ioos:station:USF.COMPS:ARP:1,2019-08-06T17:54:00,28.4330,-82.6670,72.15,11111222 
COMPS,ioos:station:USF.COMPS:ARP:1,2019-08-06T18:54:00,28.4330,-82.6670,78.98,11111222 
COMPS,ioos:station:USF.COMPS:ARP:1,2019-08-06T19:54:00,28.4330,-82.6670,75.73,11111222 
COMPS,ioos:station:USF.COMPS:ARP:1,2019-08-06T20:54:00,28.4330,-82.6670,75.69,11111222 
COMPS,ioos:station:USF.COMPS:ARP:1,2019-08-06T21:54:00,28.4330,-82.6670,72.51,11111222 
COMPS,ioos:station:USF.COMPS:ARP:1,2019-08-06T22:54:00,28.4330,-82.6670,75.26,11111222 
COMPS,ioos:station:USF.COMPS:ARP:1,2019-08-06T23:54:00,28.4330,-82.6670,63.82,11111222 
COMPS,ioos:station:USF.COMPS:ARP:1,2019-08-07T00:54:00,28.4330,-82.6670,71.48,11111222 
COMPS,ioos:station:USF.COMPS:ARP:1,2019-08-07T01:54:00,28.4330,-82.6670,73.13,11111222 
COMPS,ioos:station:USF.COMPS:ARP:1,2019-08-07T02:54:00,28.4330,-82.6670,72.11,11111222 
COMPS,ioos:station:USF.COMPS:ARP:1,2019-08-07T03:54:00,28.4330,-82.6670,81.46,11111222 
COMPS,ioos:station:USF.COMPS:ARP:1,2019-08-07T04:54:00,28.4330,-82.6670,84.9,11111222 
COMPS,ioos:station:USF.COMPS:ARP:1,2019-08-07T05:54:00,28.4330,-82.6670,86.59,11111222 
COMPS,ioos:station:USF.COMPS:ARP:1,2019-08-07T06:54:00,28.4330,-82.6670,87.93,11111222 
COMPS,ioos:station:USF.COMPS:ARP:1,2019-08-07T07:54:00,28.4330,-82.6670,88.82,11111222 
COMPS,ioos:station:USF.COMPS:ARP:1,2019-08-07T08:54:00,28.4330,-82.6670,90.21,11111222 
COMPS,ioos:station:USF.COMPS:ARP:1,2019-08-07T09:54:00,28.4330,-82.6670,83.83,11111222 
COMPS,ioos:station:USF.COMPS:ARP:1,2019-08-07T10:54:00,28.4330,-82.6670,85.46,11111222 
COMPS,ioos:station:USF.COMPS:ARP:1,2019-08-07T11:54:00,28.4330,-82.6670,85.41,11111222 
COMPS,ioos:station:USF.COMPS:ARP:1,2019-08-07T12:54:00,28.4330,-82.6670,89.98,11111222 
COMPS,ioos:station:USF.COMPS:ARP:1,2019-08-07T13:54:00,28.4330,-82.6670,89.72,11111222 
COMPS,ioos:station:USF.COMPS:ARP:1,2019-08-07T14:54:00,28.4330,-82.6670,78.9,11111222 
COMPS,ioos:station:USF.COMPS:ARP:1,2019-08-07T15:54:00,28.4330,-82.6670,76.69,11111222 
COMPS,ioos:station:USF.COMPS:ARP:1,2019-08-07T16:54:00,28.4330,-82.6670,77.26,11111222 
COMPS,ioos:station:USF.COMPS:ARP:1,2019-08-07T17:54:00,28.4330,-82.6670,76.87,11111222 
COMPS,ioos:station:USF.COMPS:ARP:1,2019-08-07T18:54:00,28.4330,-82.6670,74.71,11111222 
COMPS,ioos:station:USF.COMPS:ARP:1,2019-08-07T19:54:00,28.4330,-82.6670,77.95,11111222 
COMPS,ioos:station:USF.COMPS:ARP:1,2019-08-07T20:54:00,28.4330,-82.6670,86.6,11111222 
COMPS,ioos:station:USF.COMPS:ARP:1,2019-08-07T21:54:00,28.4330,-82.6670,68.76,11111222 
COMPS,ioos:station:USF.COMPS:ARP:1,2019-08-07T22:54:00,28.4330,-82.6670,69.74,11111222 
COMPS,ioos:station:USF.COMPS:ARP:1,2019-08-07T23:54:00,28.4330,-82.6670,69.8,11111222 
COMPS,ioos:station:USF.COMPS:ARP:1,2019-08-08T00:54:00,28.4330,-82.6670,86.85,11111222 
COMPS,ioos:station:USF.COMPS:ARP:1,2019-08-08T01:54:00,28.4330,-82.6670,83.19,11111222 
COMPS,ioos:station:USF.COMPS:ARP:1,2019-08-08T02:54:00,28.4330,-82.6670,86.72,11111222 
COMPS,ioos:station:USF.COMPS:ARP:1,2019-08-08T05:54:00,28.4330,-82.6670,79.26,11111222 
COMPS,ioos:station:USF.COMPS:ARP:1,2019-08-08T06:54:00,28.4330,-82.6670,79.62,11111222 
COMPS,ioos:station:USF.COMPS:ARP:1,2019-08-08T07:54:00,28.4330,-82.6670,80.24,11111222 
COMPS,ioos:station:USF.COMPS:ARP:1,2019-08-08T08:54:00,28.4330,-82.6670,86.3,11111222 
COMPS,ioos:station:USF.COMPS:ARP:1,2019-08-08T09:54:00,28.4330,-82.6670,82.42,11111222 
COMPS,ioos:station:USF.COMPS:ARP:1,2019-08-08T10:54:00,28.4330,-82.6670,79.83,11111222 
COMPS,ioos:station:USF.COMPS:ARP:1,2019-08-08T11:54:00,28.4330,-82.6670,83.89,11111222 
COMPS,ioos:station:USF.COMPS:ARP:1,2019-08-08T12:54:00,28.4330,-82.6670,82.64,11111222 
COMPS,ioos:station:USF.COMPS:ARP:1,2019-08-08T13:54:00,28.4330,-82.6670,79.67,11111222 
COMPS,ioos:station:USF.COMPS:ARP:1,2019-08-08T14:54:00,28.4330,-82.6670,81.73,11111222 
COMPS,ioos:station:USF.COMPS:ARP:1,2019-08-08T15:54:00,28.4330,-82.6670,76.48,11111222 
COMPS,ioos:station:USF.COMPS:ARP:1,2019-08-08T16:54:00,28.4330,-82.6670,80.07,11111222 
COMPS,ioos:station:USF.COMPS:ARP:1,2019-08-08T17:54:00,28.4330,-82.6670,76.34,11111222 
COMPS,ioos:station:USF.COMPS:ARP:1,2019-08-08T18:54:00,28.4330,-82.6670,78.09,11111222 
COMPS,ioos:station:USF.COMPS:ARP:1,2019-08-08T19:54:00,28.4330,-82.6670,82.11,11111222 
COMPS,ioos:station:USF.COMPS:ARP:1,2019-08-08T20:54:00,28.4330,-82.6670,80.72,11111222 
COMPS,ioos:station:USF.COMPS:ARP:1,2019-08-08T21:54:00,28.4330,-82.6670,81.28,11111222 
COMPS,ioos:station:USF.COMPS:ARP:1,2019-08-08T22:54:00,28.4330,-82.6670,81.36,11111222 
COMPS,ioos:station:USF.COMPS:ARP:1,2019-08-08T23:54:00,28.4330,-82.6670,80.04,11111222 
COMPS,ioos:station:USF.COMPS:ARP:1,2019-08-09T00:54:00,28.4330,-82.6670,80.95,11111222 
COMPS,ioos:station:USF.COMPS:ARP:1,2019-08-09T01:54:00,28.4330,-82.6670,78.52,11111222 
COMPS,ioos:station:USF.COMPS:ARP:1,2019-08-09T02:54:00,28.4330,-82.6670,80.45,11111222 
COMPS,ioos:station:USF.COMPS:ARP:1,2019-08-09T03:54:00,28.4330,-82.6670,82.48,11111222 
COMPS,ioos:station:USF.COMPS:ARP:1,2019-08-09T04:54:00,28.4330,-82.6670,79.2,11111222 
COMPS,ioos:station:USF.COMPS:ARP:1,2019-08-09T05:54:00,28.4330,-82.6670,82.11,11111222 
COMPS,ioos:station:USF.COMPS:ARP:1,2019-08-09T06:54:00,28.4330,-82.6670,79.55,11111222 
COMPS,ioos:station:USF.COMPS:ARP:1,2019-08-09T07:54:00,28.4330,-82.6670,77.25,11111222 
COMPS,ioos:station:USF.COMPS:ARP:1,2019-08-09T08:54:00,28.4330,-82.6670,78.24,11111222 
COMPS,ioos:station:USF.COMPS:ARP:1,2019-08-09T09:54:00,28.4330,-82.6670,76.69,11111222 
COMPS,ioos:station:USF.COMPS:ARP:1,2019-08-09T10:54:00,28.4330,-82.6670,78.68,11111222 
COMPS,ioos:station:USF.COMPS:ARP:1,2019-08-09T11:54:00,28.4330,-82.6670,77.85,11111222 
COMPS,ioos:station:USF.COMPS:ARP:1,2019-08-09T12:54:00,28.4330,-82.6670,77.7,11111222 
COMPS,ioos:station:USF.COMPS:ARP:1,2019-08-09T13:54:00,28.4330,-82.6670,77.24,11111222 
COMPS,ioos:station:USF.COMPS:ARP:1,2019-08-09T14:54:00,28.4330,-82.6670,76.79,11111222 
COMPS,ioos:station:USF.COMPS:ARP:1,2019-08-09T15:54:00,28.4330,-82.6670,76.79,11111222 
COMPS,ioos:station:USF.COMPS:ARP:1,2019-08-09T16:54:00,28.4330,-82.6670,75.37,11111222 
COMPS,ioos:station:USF.COMPS:ARP:1,2019-08-09T17:54:00,28.4330,-82.6670,81.36,11111222 
COMPS,ioos:station:USF.COMPS:ARP:1,2019-08-09T18:54:00,28.4330,-82.6670,78.19,11111222 
COMPS,ioos:station:USF.COMPS:ARP:1,2019-08-09T19:54:00,28.4330,-82.6670,79.21,11111222 
COMPS,ioos:station:USF.COMPS:ARP:1,2019-08-09T20:54:00,28.4330,-82.6670,79.94,11111222 
COMPS,ioos:station:USF.COMPS:ARP:1,2019-08-09T21:54:00,28.4330,-82.6670,80.07,11111222 
COMPS,ioos:station:USF.COMPS:ARP:1,2019-08-09T22:54:00,28.4330,-82.6670,80.32,11111222 
COMPS,ioos:station:USF.COMPS:ARP:1,2019-08-09T23:54:00,28.4330,-82.6670,82.38,11111222 
COMPS,ioos:station:USF.COMPS:ARP:1,2019-08-10T00:54:00,28.4330,-82.6670,78.89,11111222 
COMPS,ioos:station:USF.COMPS:ARP:1,2019-08-10T01:54:00,28.4330,-82.6670,80.77,11111222 
COMPS,ioos:station:USF.COMPS:ARP:1,2019-08-10T02:54:00,28.4330,-82.6670,80.63,11111222 
COMPS,ioos:station:USF.COMPS:ARP:1,2019-08-10T03:54:00,28.4330,-82.6670,83.06,11111222 
COMPS,ioos:station:USF.COMPS:ARP:1,2019-08-10T04:54:00,28.4330,-82.6670,83.14,11111222 
COMPS,ioos:station:USF.COMPS:ARP:1,2019-08-10T05:54:00,28.4330,-82.6670,84.78,11111222 
COMPS,ioos:station:USF.COMPS:ARP:1,2019-08-10T06:54:00,28.4330,-82.6670,80.29,11111222 
COMPS,ioos:station:USF.COMPS:ARP:1,2019-08-10T07:54:00,28.4330,-82.6670,83.03,11111222 
COMPS,ioos:station:USF.COMPS:ARP:1,2019-08-10T08:54:00,28.4330,-82.6670,81.33,11111222 
COMPS,ioos:station:USF.COMPS:ARP:1,2019-08-10T09:54:00,28.4330,-82.6670,80.9,11111222 
COMPS,ioos:station:USF.COMPS:ARP:1,2019-08-10T10:54:00,28.4330,-82.6670,81.85,11111222 
COMPS,ioos:station:USF.COMPS:ARP:1,2019-08-10T11:54:00,28.4330,-82.6670,82.59,11111222 
COMPS,ioos:station:USF.COMPS:ARP:1,2019-08-10T12:54:00,28.4330,-82.6670,82.84,11111222 
COMPS,ioos:station:USF.COMPS:ARP:1,2019-08-10T13:54:00,28.4330,-82.6670,76.53,11111222 
COMPS,ioos:station:USF.COMPS:ARP:1,2019-08-10T14:54:00,28.4330,-82.6670,74.77,11111222 
COMPS,ioos:station:USF.COMPS:ARP:1,2019-08-10T15:54:00,28.4330,-82.6670,77.41,11111222 
COMPS,ioos:station:USF.COMPS:ARP:1,2019-08-10T16:54:00,28.4330,-82.6670,78.34,11111222 
COMPS,ioos:station:USF.COMPS:ARP:1,2019-08-10T17:54:00,28.4330,-82.6670,77.01,11111222 
COMPS,ioos:station:USF.COMPS:ARP:1,2019-08-10T18:54:00,28.4330,-82.6670,79.74,11111222 
COMPS,ioos:station:USF.COMPS:ARP:1,2019-08-10T19:54:00,28.4330,-82.6670,79.54,11111222 
COMPS,ioos:station:USF.COMPS:ARP:1,2019-08-10T20:54:00,28.4330,-82.6670,76.32,11111222 
COMPS,ioos:station:USF.COMPS:ARP:1,2019-08-10T21:54:00,28.4330,-82.6670,78.03,11111222 
COMPS,ioos:station:USF.COMPS:ARP:1,2019-08-10T22:54:00,28.4330,-82.6670,80.59,11111222 
COMPS,ioos:station:USF.COMPS:ARP:1,2019-08-11T00:54:00,28.4330,-82.6670,79.56,11111222 
COMPS,ioos:station:USF.COMPS:ARP:1,2019-08-11T01:54:00,28.4330,-82.6670,80.46,11111222 
COMPS,ioos:station:USF.COMPS:ARP:1,2019-08-11T02:54:00,28.4330,-82.6670,81.8,11111222 
COMPS,ioos:station:USF.COMPS:ARP:1,2019-08-11T03:54:00,28.4330,-82.6670,80.15,11111222 
COMPS,ioos:station:USF.COMPS:ARP:1,2019-08-11T04:54:00,28.4330,-82.6670,82.49,11111222 
COMPS,ioos:station:USF.COMPS:ARP:1,2019-08-11T05:54:00,28.4330,-82.6670,81.17,11111222 
COMPS,ioos:station:USF.COMPS:ARP:1,2019-08-11T06:54:00,28.4330,-82.6670,80.04,11111222 
COMPS,ioos:station:USF.COMPS:ARP:1,2019-08-11T07:54:00,28.4330,-82.6670,82.12,11111222 
COMPS,ioos:station:USF.COMPS:ARP:1,2019-08-11T08:54:00,28.4330,-82.6670,82.22,11111222 
COMPS,ioos:station:USF.COMPS:ARP:1,2019-08-11T09:54:00,28.4330,-82.6670,83.95,11111222 
COMPS,ioos:station:USF.COMPS:ARP:1,2019-08-11T10:54:00,28.4330,-82.6670,83.82,11111222 
COMPS,ioos:station:USF.COMPS:ARP:1,2019-08-11T11:54:00,28.4330,-82.6670,81.76,11111222 
COMPS,ioos:station:USF.COMPS:ARP:1,2019-08-11T12:54:00,28.4330,-82.6670,82.46,11111222 
COMPS,ioos:station:USF.COMPS:ARP:1,2019-08-11T13:54:00,28.4330,-82.6670,86.24,11111222 
COMPS,ioos:station:USF.COMPS:ARP:1,2019-08-11T14:54:00,28.4330,-82.6670,75.13,11111222 
COMPS,ioos:station:USF.COMPS:ARP:1,2019-08-11T15:54:00,28.4330,-82.6670,78.6,11111222 
COMPS,ioos:station:USF.COMPS:ARP:1,2019-08-11T16:54:00,28.4330,-82.6670,83.78,11111222 
COMPS,ioos:station:USF.COMPS:ARP:1,2019-08-11T17:54:00,28.4330,-82.6670,79.18,11111222 
COMPS,ioos:station:USF.COMPS:ARP:1,2019-08-11T18:54:00,28.4330,-82.6670,77.25,11111222 
COMPS,ioos:station:USF.COMPS:ARP:1,2019-08-11T19:54:00,28.4330,-82.6670,77.17,11111222 
COMPS,ioos:station:USF.COMPS:ARP:1,2019-08-11T20:54:00,28.4330,-82.6670,79.36,11111222 
COMPS,ioos:station:USF.COMPS:ARP:1,2019-08-11T21:54:00,28.4330,-82.6670,79.79,11111222 
COMPS,ioos:station:USF.COMPS:ARP:1,2019-08-11T22:54:00,28.4330,-82.6670,79.77,11111222 
COMPS,ioos:station:USF.COMPS:ARP:1,2019-08-12T05:54:00,28.4330,-82.6670,79.62,11111222 
COMPS,ioos:station:USF.COMPS:ARP:1,2019-08-12T08:54:00,28.4330,-82.6670,83.79,11111222 
COMPS,ioos:station:USF.COMPS:ARP:1,2019-08-12T11:54:00,28.4330,-82.6670,84.64,11111222 
COMPS,ioos:station:USF.COMPS:ARP:1,2019-08-12T12:54:00,28.4330,-82.6670,78.84,11111222 
COMPS,ioos:station:USF.COMPS:ARP:1,2019-08-12T13:54:00,28.4330,-82.6670,79.47,11111222 
COMPS,ioos:station:USF.COMPS:ARP:1,2019-08-12T14:54:00,28.4330,-82.6670,79.6,11111222 
COMPS,ioos:station:USF.COMPS:ARP:1,2019-08-12T15:54:00,28.4330,-82.6670,84.81,11111222 
COMPS,ioos:station:USF.COMPS:ARP:1,2019-08-12T16:54:00,28.4330,-82.6670,81.97,11111222 
COMPS,ioos:station:USF.COMPS:ARP:1,2019-08-12T17:54:00,28.4330,-82.6670,77.1,11111222 
COMPS,ioos:station:USF.COMPS:ARP:1,2019-08-12T18:54:00,28.4330,-82.6670,80.8,11111222 
COMPS,ioos:station:USF.COMPS:ARP:1,2019-08-12T19:54:00,28.4330,-82.6670,80.83,11111222 
COMPS,ioos:station:USF.COMPS:ARP:1,2019-08-12T20:54:00,28.4330,-82.6670,81.52,11111222 
COMPS,ioos:station:USF.COMPS:ARP:1,2019-08-12T21:54:00,28.4330,-82.6670,87.43,11111222 